[[{"header":{"parameterUnit":"m.s-1","parameterCategory":1,"la1":30.2992,"la2":30.254,"lo1":-89.0895,"lo2":-89.0443,"dy":0.0025,"dx":0.0025,"nx":19,"ny":19,"refTime":"2026-05-22T21:00:00:Z","depth":0,"parameterNumber":2,"parameterNumberName":"U-component_of_WINDS"},"data":[0,0,0,-3.4815,-3.4817,-3.4892,-3.4892,-3.4998,-3.4999,0,0,0,0,0,0,0,0,0,0,0,-3.4798,-3.4799,-3.4815,-3.4817,-3.4892,-3.4892,-3.4998,-3.4999,0,0,0,0,0,0,0,0,0,0,0,-3.4798,-3.4799,-3.48,-3.4817,-3.4891,-3.4892,-3.4998,-3.4938,0,0,0,0,0,0,0,0,0,0,-3.4864,-3.4853,-3.4799,-3.48,-3.4818,-3.4891,-3.4892,-3.4935,-3.4942,-3.4969,0,-3.4993,0,-3.4998,-3.5007,-3.5008,0,0,0,-3.4813,-3.4847,-3.4862,-3.48,-3.4818,-3.4891,-3.4857,-3.4939,-3.4946,-3.4978,-3.4994,-3.4998,-3.5,-3.5008,-3.5008,-3.5173,-3.5174,0,0,-3.4809,-3.4815,-3.4857,-3.4868,-3.4855,-3.4854,-3.4859,-3.4943,-3.4962,-3.4995,-3.5001,-3.5001,-3.5009,-3.501,-3.5172,-3.5174,0,0,0,-3.48,-3.4812,-3.4825,-3.4864,-3.4876,-3.4857,-3.4862,-3.4958,-3.4962,-3.5002,-3.5003,-3.5009,-3.5011,-3.5171,-3.5173,-3.5223,0,0,0,-3.4797,-3.4806,-3.4823,-3.4828,-3.4875,-3.4918,-3.4876,-3.4956,-3.4965,-3.5002,-3.5009,-3.5012,-3.517,-3.5172,-3.522,-3.5246,0,0,0,-3.4792,-3.4806,-3.4818,-3.4828,-3.486,-3.4916,-3.4925,-3.4958,-3.4966,-3.5008,-3.5012,-3.517,-3.5172,-3.5216,-3.5241,-3.529,0,0,0,-3.4787,-3.4863,-3.4819,-3.4904,-3.4859,-3.4947,-3.4924,-3.499,-3.5031,-3.501,-3.517,-3.5173,-3.5215,-3.5237,-3.5287,-3.5331,-3.5351,0,0,-3.4886,-3.4875,-3.4925,-3.4888,-3.4984,-3.4935,-3.504,-3.5073,-3.5073,-3.514,-3.5144,-3.5221,-3.524,-3.5289,-3.5461,-3.5476,0,0,0,-3.4958,-3.4993,-3.5018,-3.5057,-3.5084,-3.5109,-3.5125,-3.5138,-3.5194,-3.5108,-3.5253,-3.5264,-3.5293,-3.5314,-3.5327,-3.5351,-3.5183,-3.5183,-3.5183,-3.5105,-3.5099,-3.5181,-3.5185,-3.5223,-3.524,-3.527,-3.529,-3.5275,-3.5309,-3.5328,-3.5433,-3.5458,-3.5468,-3.5493,-3.5353,-3.5353,-3.5353,-3.5353,-3.5248,-3.5297,-3.5274,-3.5344,-3.5339,-3.5399,-3.5418,-3.5405,-3.5461,-3.5418,-3.5443,-3.5395,-3.5485,-3.5506,-3.5357,-3.5357,-3.5356,-3.5356,-3.5355,-3.5342,-3.5365,-3.5378,-3.5434,-3.5478,-3.548,-3.5534,-3.5527,-3.5522,-3.5547,-3.5566,-3.5565,-3.5563,-3.5557,-3.5557,-3.5558,-3.5558,-3.5558,-3.5558,-3.5434,-3.5448,-3.5493,-3.5528,-3.5552,-3.5583,-3.5601,-3.5625,-3.565,-3.5641,-3.5641,-3.5622,-3.5495,-3.5462,-3.5564,-3.5563,-3.5562,-3.5562,-3.5561,-3.5579,-3.5545,-3.5615,-3.5639,-3.5679,-3.5723,-3.5715,-3.5765,-3.5784,-3.5811,-3.5787,-3.5694,-3.5683,-3.5672,-3.5645,-3.5788,-3.5788,-3.5788,-3.5788,-3.5658,-3.5651,-3.5721,-3.576,-3.5798,-3.5797,-3.5877,-3.5892,-3.5903,-3.5915,-3.5894,-3.5858,-3.5847,-3.5842,-3.5828,-3.5802,-3.5982,-3.5982,-3.5982,-3.5746,-3.5743,-3.5812,-3.582,-3.5851,-3.5878,-3.5954,-3.6,-3.6006,-3.599,-3.5924,-3.5915,-3.5857,-3.5839,-3.582,-3.5798,-3.5751,0,0]},{"header":{"parameterUnit":"m.s-1","parameterCategory":1,"la1":30.2992,"la2":30.254,"lo1":-89.0895,"lo2":-89.0443,"dy":0.0025,"dx":0.0025,"nx":19,"ny":19,"refTime":"2026-05-22T21:00:00:Z","depth":0,"parameterNumber":3,"parameterNumberName":"V-component_of_WINDS"},"data":[0,0,0,4.4285,4.4288,4.444,4.4441,4.4634,4.4635,0,0,0,0,0,0,0,0,0,0,0,4.424,4.4241,4.4284,4.4288,4.444,4.4441,4.4633,4.4635,0,0,0,0,0,0,0,0,0,0,0,4.4239,4.4241,4.4242,4.4289,4.444,4.4441,4.4633,4.4518,0,0,0,0,0,0,0,0,0,0,4.4371,4.4329,4.424,4.4242,4.429,4.444,4.4441,4.4513,4.4526,4.4564,0,4.4599,0,4.4621,4.4648,4.4649,0,0,0,4.4288,4.4319,4.436,4.4242,4.4291,4.444,4.4372,4.452,4.4534,4.4581,4.4602,4.4609,4.4624,4.4649,4.465,4.4878,4.4879,0,0,4.4279,4.4267,4.435,4.4369,4.4347,4.4367,4.4376,4.4529,4.4551,4.4603,4.4614,4.4627,4.4651,4.4652,4.4877,4.4878,0,0,0,4.4256,4.4261,4.4298,4.4361,4.4389,4.4371,4.4382,4.4544,4.4557,4.4616,4.4629,4.4652,4.4654,4.4875,4.4877,4.492,0,0,0,4.425,4.4247,4.4295,4.4288,4.4386,4.4469,4.4394,4.4547,4.4564,4.4628,4.4652,4.4656,4.4874,4.4876,4.4916,4.4942,0,0,0,4.423,4.4244,4.4267,4.4287,4.4353,4.4467,4.4489,4.4551,4.4572,4.4649,4.4657,4.4873,4.4876,4.4913,4.4937,4.5,0,0,0,4.4203,4.4301,4.4267,4.4381,4.4351,4.4492,4.4488,4.4593,4.4663,4.4653,4.4874,4.4877,4.4912,4.4934,4.4996,4.5051,4.5073,0,0,4.432,4.4315,4.4383,4.4357,4.4501,4.447,4.4619,4.4695,4.4713,4.4821,4.4827,4.4917,4.4937,4.4999,4.5195,4.5212,0,0,0,4.4415,4.4464,4.4505,4.4573,4.4634,4.4689,4.4743,4.4771,4.4864,4.4766,4.4956,4.4968,4.5005,4.5032,4.5047,4.508,4.4888,4.4888,4.4888,4.4562,4.4581,4.4696,4.4733,4.4798,4.4854,4.4908,4.4955,4.4954,4.4998,4.5031,4.5148,4.518,4.5191,4.5225,4.5061,4.5061,4.5061,4.5061,4.4736,4.4809,4.4806,4.4916,4.4935,4.5027,4.5083,4.5079,4.5167,4.5125,4.5159,4.5112,4.5209,4.524,4.5064,4.5064,4.5063,4.5063,4.5063,4.4836,4.4874,4.4907,4.5007,4.5082,4.5115,4.5201,4.5214,4.5226,4.526,4.5296,4.5296,4.5298,4.5276,4.5276,4.5277,4.5277,4.5277,4.5278,4.4927,4.4963,4.5034,4.5108,4.5153,4.5214,4.527,4.5315,4.5368,4.5371,4.5371,4.5366,4.5214,4.5177,4.5284,4.5283,4.5282,4.5282,4.5281,4.5099,4.5063,4.5172,4.5218,4.5305,4.5379,4.5394,4.5484,4.5522,4.5564,4.5551,4.5437,4.5432,4.5421,4.539,4.5546,4.5546,4.5546,4.5546,4.5185,4.5184,4.53,4.5372,4.5444,4.5469,4.5592,4.5636,4.5676,4.5701,4.5679,4.5639,4.5627,4.563,4.5614,4.5585,4.5788,4.5788,4.5788,4.5293,4.5299,4.5403,4.5442,4.5511,4.557,4.5686,4.5768,4.5804,4.5798,4.5721,4.571,4.5645,4.5623,4.5617,4.5591,4.554,0,0]}]]